Hourly Data Report for October 26, 2014

All times are specified in Local Standard Time (LST). Add 1 hour to adjust for Daylight Saving Time where and when it is observed.

CLYDE RIVER A
NUNAVUT

70°29'09.000" N
68°31'01.000" W
26.50 m
2400804
71090
YCY

Download Data

Hourly Data (October 2014)
Hourly Data Report for October 26, 2014
Temp Definition
°C
Dew Point Temp Definition
°C
Rel Hum Definition
%
Wind Dir Definition
10's deg

Wind Spd Definition
km/h
Visibility Definition
km
Stn Press Definition
kPa
Hmdx Definition


Wind Chill Definition


Weather Definition


TIME
00:00 Legend Double Dagger -15.4 -18.9 75 29 32 16.1 101.72   -27 LegendNANA
01:00 Legend Double Dagger -15.4 -19.0 74 29 32 16.1 101.71   -27 LegendNANA
02:00 Legend Double Dagger -15.3 -18.6 76 29 28 16.1 101.73   -26 LegendNANA
03:00 Legend Double Dagger -15.5 -19.1 75 24 8 16.1 101.72   -21 LegendNANA
04:00 Legend Double Dagger -15.3 -19.2 73 23 9 16.1 101.72   -21 LegendNANA
05:00 Legend Double Dagger -14.2 -18.5 70 24 9 16.1 101.73   -20 LegendNANA
06:00 Legend Double Dagger -14.4 -18.6 71 25 11 16.1 101.74   -21 LegendNANA
07:00 Legend Double Dagger -14.9 -19.2 70 28 13 16.1 101.73   -22 LegendNANA
08:00 Legend Double Dagger -16.3 -19.8 75 28 11 16.1 101.74   -23 LegendNANA
09:00 Legend Double Dagger -17.4 -20.6 77 28 11 16.1 101.73   -25 LegendNANA
10:00 Legend Double Dagger -16.4 -19.5 77 27 9 16.1 101.71   -22 LegendNANA
11:00 Legend Double Dagger -16.6 -19.0 82 29 5 16.1 101.71   -20 LegendNANA
12:00 Legend Double Dagger -16.2 -18.4 84 LegendMM 4 4.8 101.69   -19 Fog
13:00 Legend Double Dagger -16.0 -19.2 77 LegendMM 4 16.1 101.71   -19 LegendNANA
14:00 Legend Double Dagger -16.6 -20.1 75 29 9 2.0 101.71   -23 Haze
15:00 Legend Double Dagger -16.9 -20.5 74 28 13 16.1 101.74   -25 LegendNANA
16:00 Legend Double Dagger -16.8 -20.4 74 30 15 16.1 101.75   -25 LegendNANA
17:00 Legend Double Dagger -16.3 -20.1 73 30 17 16.1 101.77   -25 LegendNANA
18:00 Legend Double Dagger -15.9 -19.8 72 30 15 16.1 101.76   -24 LegendNANA
19:00 Legend Double Dagger -14.1 -18.7 69 LegendMM 4 16.1 101.75   -17 LegendNANA
20:00 Legend Double Dagger -14.8 -18.2 76 29 5 16.1 101.76   -18 LegendNANA
21:00 Legend Double Dagger -13.5 -16.1 81   0 16.1 101.76     LegendNANA
22:00 Legend Double Dagger -12.2 -15.5 77 30 5 16.1 101.76   -15 LegendNANA
23:00 Legend Double Dagger -14.1 -17.5 76 29 13 16.1 101.75   -21 LegendNANA

Notes on Data Quality.

Legend

  • E = Estimated
  • M = Missing
  • NA = Not Available
  • ‡ = Partner data that is not subject to review by the National Climate Archives
Date modified: